Wilmington, DE

9:26 PM EDT on April 24, 2018 (GMT -0400)
New Castle County

Weather History for KILG - August, 2013

Change the Weather History Date:

Tuesday, August 20, 2013

  Actual Average Record
Temperature  
Mean Temperature 75 °F 75 °F  
Max Temperature 86 °F 84 °F 100 °F (1983)
Min Temperature 64 °F 66 °F 48 °F (1949)
Degree Days  
Heating Degree Days 0 0  
Month to date heating degree days 0 0  
Since 1 June heating degree days 0 15  
Since 1 July heating degree days 0 0  
Cooling Degree Days 10 10  
Month to date cooling degree days 155 216  
Year to date cooling degree days 970 893  
Since 1 June cooling degree days 863 814  
Growing Degree Days 25 (Base 50)    
Moisture  
Dew Point 66 °F    
Average Humidity 71    
Maximum Humidity 93    
Minimum Humidity 48    
Precipitation  
Precipitation 0.00 in 0.10 in 2.31 in (1997)
Month to date precipitation 4.60 2.18  
Year to date precipitation 35.71 27.69  
Snow  
Snow 0.00 in 0.00 in 0.00 in (1894)
Month to date snowfall 0.0 0.0  
Since 1 June snowfall 0.0 0.0  
Since 1 July snowfall 0.0 0.0  
Snow Depth 0.00 in    
Sea Level Pressure  
Sea Level Pressure 30.13 in    
Wind  
Wind Speed 4 mph (West)    
Max Wind Speed 10 mph    
Max Gust Speed 18 mph    
Visibility 8 miles    
Events Fog    
T = Trace of Precipitation, MM = Missing Value Source: NWS Daily Summary

Daily Weather History Graph

Daily Weather History Graph

Search for Another Location

Airport or City:

Astronomy

Aug. 20, 2013 Rise Set
Actual Time 6:19 AM EDT 7:51 PM EDT
Civil Twilight 5:51 AM EDT 8:19 PM EDT
Nautical Twilight 5:16 AM EDT 8:53 PM EDT
Astronomical Twilight 4:40 AM EDT 9:29 PM EDT
Moon 7:21 PM EDT (8/20) 5:46 AM EDT (8/20)
Length of Visible Light 14h 28m
Length of Day
13h 31m
Full, 100% of the Moon is Illuminated
Aug 20
Full
Aug 20
Full
Aug 28
Last Quarter
Sep 5
New
Sep 12
First Quarter

Hourly Weather History & Observations

Time (EDT) Temp. Heat Index Dew Point Humidity Pressure Visibility Wind Dir Wind Speed Gust Speed Precip Events Conditions
12:51 AM 68.0 °F - 64.9 °F 90% 30.11 in 10.0 mi Calm Calm - N/A   Clear
1:51 AM 66.9 °F - 64.9 °F 93% 30.10 in 10.0 mi Calm Calm - N/A   Clear
2:51 AM 66.0 °F - 64.0 °F 93% 30.10 in 9.0 mi Calm Calm - N/A   Clear
3:51 AM 66.0 °F - 64.0 °F 93% 30.10 in 7.0 mi Calm Calm - N/A   Clear
4:51 AM 66.0 °F - 64.0 °F 93% 30.10 in 7.0 mi West 3.5 mph - N/A   Clear
5:51 AM 64.0 °F - 63.0 °F 96% 30.11 in 8.0 mi WNW 4.6 mph - N/A   Clear
6:51 AM 64.9 °F - 63.0 °F 93% 30.13 in 5.0 mi Calm Calm - N/A   Clear
7:22 AM 66.2 °F - 64.4 °F 94% 30.14 in 0.5 mi Calm Calm - 0.01 in Fog Fog
7:51 AM 66.9 °F - 64.9 °F 93% 30.14 in 3.0 mi Calm Calm - 0.01 in   Scattered Clouds
7:56 AM 66.2 °F - 64.4 °F 94% 30.15 in 2.5 mi NW 3.5 mph - N/A   Scattered Clouds
8:05 AM 68.0 °F - 64.4 °F 88% 30.15 in 2.5 mi Calm Calm - N/A   Mostly Cloudy
8:33 AM 69.8 °F - 66.2 °F 88% 30.16 in 2.5 mi Calm Calm - N/A   Scattered Clouds
8:41 AM 71.6 °F - 66.2 °F 83% 30.16 in 4.0 mi Calm Calm - N/A   Haze
8:51 AM 71.1 °F - 66.9 °F 87% 30.16 in 6.0 mi Calm Calm - N/A   Clear
9:51 AM 75.0 °F - 68.0 °F 79% 30.16 in 9.0 mi Calm Calm - 0.00 in   Clear
10:51 AM 80.1 °F 82.9 °F 69.1 °F 69% 30.17 in 10.0 mi Calm Calm - N/A   Clear
11:51 AM 80.1 °F 82.9 °F 69.1 °F 69% 30.16 in 10.0 mi SE 6.9 mph - N/A   Partly Cloudy
12:51 PM 80.1 °F 82.9 °F 69.1 °F 69% 30.15 in 10.0 mi SSE 10.4 mph - N/A   Mostly Cloudy
1:51 PM 82.0 °F 85.5 °F 69.1 °F 65% 30.14 in 10.0 mi SE 9.2 mph - N/A   Mostly Cloudy
2:51 PM 86.0 °F 88.8 °F 66.9 °F 53% 30.13 in 10.0 mi Variable 4.6 mph - N/A   Mostly Cloudy
3:51 PM 86.0 °F 88.8 °F 66.9 °F 53% 30.11 in 10.0 mi WNW 6.9 mph - N/A   Scattered Clouds
4:51 PM 86.0 °F 87.6 °F 64.9 °F 49% 30.11 in 10.0 mi WNW 9.2 mph - N/A   Partly Cloudy
5:51 PM 82.0 °F 83.4 °F 64.0 °F 54% 30.11 in 10.0 mi WNW 8.1 mph - N/A   Clear
6:51 PM 82.0 °F 84.5 °F 66.9 °F 60% 30.11 in 10.0 mi WSW 6.9 mph - N/A   Scattered Clouds
7:51 PM 80.1 °F 81.9 °F 64.9 °F 60% 30.12 in 10.0 mi WSW 3.5 mph - N/A   Clear
8:51 PM 77.0 °F - 66.0 °F 69% 30.14 in 10.0 mi WSW 3.5 mph - N/A   Clear
9:51 PM 75.0 °F - 68.0 °F 79% 30.16 in 10.0 mi WSW 6.9 mph - N/A   Clear
10:51 PM 73.9 °F - 68.0 °F 82% 30.16 in 10.0 mi West 3.5 mph - N/A   Clear
11:51 PM 72.0 °F - 66.9 °F 84% 30.16 in 10.0 mi Calm Calm - N/A   Clear